{"data":{"norad_id":59687,"intl_designator":"2024-086F","name":"STARLINK-32089","alt_names":[],"object_type":"PAYLOAD","status":"ACTIVE","operator":null,"country":"US","launch_date":"2024-05-08","launch_site_code":"AFETR","launch_vehicle":null,"mission":null,"orbit_class":"UNKNOWN","rcs_meters":null,"size_class":null,"mass_kg":null,"dimensions":null,"purposes":["comms"],"wikipedia_slug":null,"has_3d_model":false,"image_url":null,"decayed_at":null,"tle_current":{"epoch":"2026-05-24T06:31:56.764992Z","epoch_age_seconds":138720,"freshness":"FRESH","line1":"1 59687U 24086F   26144.27218478  .00006621  00000+0  24992-3 0  9994","line2":"2 59687  43.0003 352.8689 0001411 270.6192  89.4498 15.27576563115671","mean_motion":15.27576563,"eccentricity":0.0001411,"inclination_deg":43.0003,"raan_deg":352.8689,"arg_perigee_deg":270.6192,"mean_anomaly_deg":89.4498,"bstar":0.00024992,"rev_number":11567,"period_min":94.266960810919,"perigee_km":482.0912728631,"apogee_km":484.0275024837,"semimajor_km":6861.1963876734,"source":"CELESTRAK","updated_at":"2026-05-25T13:38:19.023950Z"}}}